Location: Hamilton
(37.7830°S, 175.2830°E)
Time: 23:59:46
(UTC+12:00)

Tiangong - Visible Passes

Search period start: 12 August 2022 00:00
Search period end: 22 August 2022 00:00
Orbit: 379 x 386 km, 41.5° (Epoch: 12 August)

Date Brightness Start Highest point End Pass type
(mag) Time Alt. Az. Time Alt. Az. Time Alt. Az.
18 Aug 0.8 06:24:16 10° N 06:26:15 15° NE 06:28:13 10° ENE visible
20 Aug -0.1 05:59:12 10° NNW 06:01:57 26° NNE 06:04:43 10° E visible
21 Aug 0.5 05:01:08 14° NNE 05:01:38 15° NE 05:03:34 10° ENE visible
